Regional Weather Roundup
Issued by NWS Boston, MA

Home | Current Version | Previous Version | Text Only | Print | Product List | Glossary On
Versions: 1 2 3 4 5 6 7 8 9 10 11 12 13 14 15 16 17 18 19 20 21 22 23 24 25 26 27 28 29 30 31 32 33 34 35 36 37 38 39 40 41 42 43 44 45 46 47 48
000
ASUS41 KBOX 302210
RWRBOX

REGIONAL WEATHER ROUNDUP
NATIONAL WEATHER SERVICE TAUNTON MA
600 PM EDT TUE SEP 30 2014

NOTE:  "FAIR" INDICATES FEW OR NO CLOUDS BELOW 12,000 FEET WITH NO
SIGNIFICANT WEATHER AND/OR OBSTRUCTIONS TO VISIBILITY.  THE FOLLOWING
OBSERVATION LOCATIONS DO NOT REPORT PRESENT WEATHER...PROVINCETOWN...
SMITHFIELD...BLOCK ISLAND...KEENE...AND OXFORD.

MAZALL-302300-
EASTERN MASSACHUSETTS

CITY           SKY/WX    TMP DP  RH WIND       PRES   REMARKS
BOSTON         LGT RAIN  56  54  93 N9        30.02R
BEVERLY        LGT RAIN  56  53  90 N5        30.01R
LAWRENCE       LGT RAIN  56  54  93 NE8       30.04R
BEDFORD        LGT RAIN  56  54  93 NE6       30.01R
BLUE HILL        N/A     54  54 100 N6        30.00R
NORWOOD        LGT RAIN  57  55  93 NE3       30.01R
MARSHFIELD     NOT AVBL
PLYMOUTH       CLOUDY    56  55  97 N10       30.00R
TAUNTON        CLOUDY    57  55  93 VRB5      30.01R
NEW BEDFORD    CLOUDY    57  55  93 N8        29.98R
$$

MAZALL-302300-
CAPE COD AND THE ISLANDS

CITY           SKY/WX    TMP DP  RH WIND       PRES   REMARKS
FALMOUTH       CLOUDY    59  57  94 NE10G20   29.97R
HYANNIS        CLOUDY    61  59  93 N10       29.96R
CHATHAM        CLOUDY    61  60  97 N9G20     29.96S FOG
PROVINCETOWN   CLOUDY    59  57  94 NE14      29.99R
NANTUCKET      CLOUDY    62  61  96 N16       29.95R FOG
MARTHAS VNYRD  CLOUDY    60  58  92 N9        29.97R
$$

MAZALL-302300-
CENTRAL AND WESTERN MASSACHUSETTS

CITY           SKY/WX    TMP DP  RH WIND       PRES   REMARKS
WORCESTER      FOG       54  54 100 NE5       30.01R VSB 1/2
FITCHBURG      CLOUDY    59  54  83 NE5       30.02S
ORANGE         CLOUDY    61  55  81 NE7       30.00S
SPRINGFIELD    CLOUDY    62  56  81 NE5       29.98S
WESTFIELD      CLOUDY    62  56  80 N5        29.99R
NORTH ADAMS    MOCLDY    62  55  77 E8        29.98S
PITTSFIELD     CLOUDY    60  55  83 E6        29.97S
$$

RIZALL-302300-
RHODE ISLAND

CITY           SKY/WX    TMP DP  RH WIND       PRES   REMARKS
PROVIDENCE     DRIZZLE   57  55  93 NE12      30.01R
NEWPORT        LGT RAIN  58  55  90 N8        29.99R
BLOCK ISLAND   CLOUDY    59  55  88 NE13G21   29.97R
SMITHFIELD     CLOUDY    55  50  82 N8        30.00S
WESTERLY       CLOUDY    60  57  89 NE8       29.97S
$$

CTZALL-302300-
CONNECTICUT

CITY           SKY/WX    TMP DP  RH WIND       PRES   REMARKS
BRADLEY INTL   CLOUDY    63  55  75 NE8       29.97S
HARTFORD       CLOUDY    62  57  83 SE8       29.97S
BRIDGEPORT     CLOUDY    63  58  83 N7        29.95S
DANBURY        CLOUDY    60  56  86 E6        29.97S
GROTON         CLOUDY    60  58  92 NE8       29.96S
NEW HAVEN      CLOUDY    65  58  78 NE10      29.95F
CHESTER        NOT AVBL
MERIDEN        CLOUDY    62  56  80 N7        29.97R
WILLIMANTIC    CLOUDY    60  56  86 NE8       29.98S
OXFORD         MOCLDY    59  54  82 NE6       29.97F
$$

MEZ002-015-021-024-NHZ003-005-008-011-012-014-VTZ005-008-302300-
NORTHERN NEW ENGLAND

CITY           SKY/WX    TMP DP  RH WIND       PRES   REMARKS
PORTLAND ME    CLOUDY    59  53  80 CALM      30.03S
BANGOR ME      CLOUDY    59  50  72 NE3       30.05R
CONCORD NH     CLOUDY    60  54  80 E5        30.02R
MANCHESTER NH  MOCLDY    60  53  77 N5        30.00S
NASHUA NH      CLOUDY    59  56  89 N5        30.02S
PORTSMOUTH NH  CLOUDY    57  54  87 NE5       30.01S
JAFFREY NH     CLOUDY    58  55  90 VRB3      30.02S
KEENE NH       CLOUDY    61  48  63 NE5       30.01S
BURLINGTON VT  MOCLDY    67  56  67 E6        29.97R
MT. WASHINGTON MOCLDY    43  41  93 NW1         N/A
$$

NYZ052-076-302300-
EASTERN NEW YORK

CITY           SKY/WX    TMP DP  RH WIND       PRES   REMARKS
ALBANY         MOCLDY    69  56  62 SE5       29.94R
NEW YORK CITY  CLOUDY    66  59  78 NE9       29.93S
$$

ANZALL-302300-
MARINE OBSERVATIONS

STATION/POSITION TIME  TEMP    WIND        PRES    VSBY  WAVE
                       AIR SEA DIR/SP/G                  HT/PER
                 (UTC) (F)     (DEG/KT/KT) (MB)    (MI)  (FT/S)
BOSTON BUOY      2150   56 60   20/ 16/ 19 1015.8R         5/ 6
BUZZARDS BAY     2100           20/ 17/ 19 1015.0F
NANTUCKET SOUND  2150   62 67   10/ 14/ 16 1013.9R         2/ 3
MASS BAY-STELLWA 2104   57 60   20/ 17/ 19   N/A    1 7/8  5/ 6
ISLE OF SHOALS   2200   57      30/ 14/ 15 1015.9R
S OF BLOCK IS    2108      68                N/A           3/ 4
$$

......................KEY.........................
  SKY/WX - SKY CONDITION/PRESENT WEATHER
  TMP    - TEMPERATURE IN FAHRENHEIT
  DWPT   - DEWPOINT IN FAHRENHEIT
  RH     - RELATIVE HUMIDITY IN PERCENT
  WIND   - DIRECTION AND SPEED IN MPH
  PRES   - MEAN SEA LEVEL PRESSURE IN INCHES OF HG
  WCI    - WIND CHILL INDEX
  VSB    - VISIBILITY IN MILES
  HX     - HEAT INDEX
  TC     - TEMPERATURE IN CELSIUS
  VRB    - VARIABLE WIND DIRECTION
  N/A    - NOT AVAILABLE



USA.gov is the U.S. government's official web portal to all federal, state and local government web resources and services.